This is the latest recevied weather packets stored in our database for station/object KB4MOX. If no packets are shown the sender has not sent any weather packets the latest 10 day(s).
| Time | Temp. | Humidity | Pressure | Rain* | Wind** | Luminosity | Snow |
|---|---|---|---|---|---|---|---|
| 1788353756 | 26.67° C | 81% | 1020 hPa | 0 mm | - | 47 W/m² | - |
| 1788353452 | 26.11° C | 81% | 1020.1 hPa | 0 mm | - | 43 W/m² | - |
| 1788353149 | 26.11° C | 81% | 1020.1 hPa | 0 mm | - | 42 W/m² | - |
| 1788352848 | 26.11° C | 83% | 1019.9 hPa | 0 mm | - | 41 W/m² | - |
| 1788352544 | 25.56° C | 85% | 1020.1 hPa | 0 mm | - | 41 W/m² | - |
| 1788352243 | 25° C | 87% | 1020 hPa | 0 mm | - | 40 W/m² | - |
| 1788351937 | 24.44° C | 89% | 1019.7 hPa | 0 mm | - | 36 W/m² | - |
| 1788351628 | 24.44° C | 90% | 1019.9 hPa | 0 mm | - | 34 W/m² | - |
| 1788351327 | 23.89° C | 91% | 1019.9 hPa | 0 mm | - | 32 W/m² | - |
| 1788351022 | 23.89° C | 91% | 1019.9 hPa | 0 mm | - | 32 W/m² | - |
| 1788350719 | 23.33° C | 92% | 1019.5 hPa | 0 mm | - | 29 W/m² | - |
| 1788350415 | 23.33° C | 93% | 1019.6 hPa | 0 mm | - | 27 W/m² | - |
| 1788350110 | 23.33° C | 93% | 1019.7 hPa | 0 mm | - | 26 W/m² | - |
| 1788349807 | 22.78° C | 93% | 1019.8 hPa | 0 mm | - | 25 W/m² | - |
| 1788349502 | 22.78° C | 93% | 1019.6 hPa | 0 mm | - | 24 W/m² | - |
| 1788349202 | 22.78° C | 94% | 1019.4 hPa | 0 mm | - | 21 W/m² | - |
| 1788348897 | 22.78° C | 94% | 1019.4 hPa | 0 mm | - | 18 W/m² | - |
| 1788348592 | 22.78° C | 94% | 1019.5 hPa | 0 mm | - | 13 W/m² | - |
| 1788348288 | 22.78° C | 94% | 1019.4 hPa | 0 mm | - | 10 W/m² | - |
| 1788347984 | 22.78° C | 94% | 1019.4 hPa | 0 mm | - | 7 W/m² | - |
| 1788347680 | 22.22° C | 94% | 1019.4 hPa | 0 mm | - | 5 W/m² | - |
| 1788347375 | 22.22° C | 93% | 1019.4 hPa | 0 mm | - | 3 W/m² | - |
| 1788347072 | 22.22° C | 93% | 1019.3 hPa | 0 mm | - | 2 W/m² | - |
| 1788346771 | 22.78° C | 93% | 1019.3 hPa | 0 mm | - | 1 W/m² | - |
| 1788346466 | 22.78° C | 93% | 1019.2 hPa | 0 mm | - | 0 W/m² | - |
* Rain latest hour (hover to see other rain measurements)
** Current wind speed in m/s (hover to see current wind gust speed)